Retour au catalogue

STARLINK-30394

ActifCommunicationsVLEO
NORAD 57810·PAYLOAD·🇺🇸 United States

Lancé Sep 9, 2023 depuis Cape Canaveral Space Force Station

Loading…

Prochains Passages (prochaines 24 heures)

TLE

FraisSource: CelesTrak SupGP

Époque: Sep 15, 2026, 03:15 UTC

1 57810C 23138C   26258.13590278 -.00032746  00000+0 -11859-2 0  2583
2 57810  43.0021 244.2055 0001269 267.7705  58.4827 15.27598612    18

Suivez STARLINK-30394 en temps réel avec AllMySat

Download on the App Store